Regional Weather Roundup
Issued by NWS

Home | Current Version | Previous Version | Graphics & Text | Print | Product List | Glossary On
Versions: 1 2 3 4 5 6 7 8 9 10 11 12 13 14 15 16 17 18 19 20 21 22 23 24 25 26 27 28 29 30 31 32 33 34 35 36 37 38 39 40 41 42 43 44 45 46 47 48 49 50
035
ASUS43 KLOT 231204
RWRIL

ILLINOIS REGIONAL WEATHER ROUNDUP
NATIONAL WEATHER SERVICE CHICAGO/ROMEOVILLE IL
700 AM CDT SUN JUL 23 2017

NOTE: "FAIR" INDICATES FEW OR NO CLOUDS BELOW 12,000 FEET WITH NO
SIGNIFICANT WEATHER AND/OR OBSTRUCTIONS TO VISIBILITY.

* THESE STATIONS ARE NOT UNDER NWS QUALITY CONTROL. THEY ALSO MAY NOT
  REPORT WEATHER SUCH AS PRECIPITATION OR FOG.

ILZ001-002-007-009-015-016-024-231300-
NORTHWEST ILLINOIS

CITY           SKY/WX    TMP DP  RH WIND       PRES   REMARKS
MOLINE         MOSUNNY   74  72  93 W5        29.84F
6HR MIN TEMP:  73; 6HR MAX TEMP:  77;

STERLING*      SUNNY     74  73  97 W5        29.84R
SAVANNA*         N/A     69  69 100 CALM      29.83S FOG
$$

ILZ003-004-008-010-011-017-018-231300-
NORTH CENTRAL ILLINOIS

CITY           SKY/WX    TMP DP  RH WIND       PRES   REMARKS
ROCKFORD       PTSUNNY   75  71  87 N3        29.82F
6HR MIN TEMP:  73; 6HR MAX TEMP:  76;

FREEPORT*      SUNNY     71  70  97 W3        29.84S
ROCHELLE*      PTSUNNY   72  72  99 W5        29.84R FOG
DE KALB*       FOG       73  73  99 W5        29.84R VSB 3/4
PERU*          CLOUDY   N/A N/A N/A W8        29.84R FOG
$$

ILZ005-006-012>014-019>023-231300-
NORTHEAST ILLINOIS

CITY           SKY/WX    TMP DP  RH WIND       PRES   REMARKS
CHICAGO-OHARE  CLOUDY    74  70  87 CALM      29.81R
6HR MIN TEMP:  71; 6HR MAX TEMP:  74;

CHICAGO-MIDWAY CLOUDY    75  71  87 W3        29.80S
6HR MIN TEMP:  73; 6HR MAX TEMP:  76;

AURORA         CLOUDY    74  74 100 SW3       29.82R FOG
6HR MIN TEMP:  72; 6HR MAX TEMP:  74; 6HR PCP:  0.07;

LANSING*       CLOUDY    73  69  88 CALM      29.81S
JOLIET*        CLOUDY    76  74  93 CALM      29.82R
WAUKEGAN       PTSUNNY   72  71  97 SW3       29.80R
6HR MIN TEMP:  68; 6HR MAX TEMP:  72;

DUPAGE AIRPORT CLOUDY    73  73 100 CALM      29.81R FOG
6HR MIN TEMP:  69; 6HR MAX TEMP:  73;

WHEELING       CLOUDY    74  72  93 CALM      29.82R
6HR MIN TEMP:  72; 6HR MAX TEMP:  74;

MORRIS*        CLOUDY    74  73  96 SW6       29.81R
ROMEOVILLE*    CLOUDY    73  68  87 CALM      29.82R
NORTHERLY ISL    N/A     75  69  81 CALM        N/A
$$

LMZ740>746-231300-
SOUTHERN LAKE MICHIGAN

STATION/POSITION SKY/WX   TEMP    WIND        PRES    VSBY  WAVE
                          AIR SEA DIR/SP/G                  HT/PER
                          (F)     (DEG/KT/KT) (MB)    (MI)  (FT/S)
SOUTHERN BUOY              70 70   60/  8/ 10 1009.0          0
WILMETTE HARBOR            72 73  220/  2/  2   N/A           0
HARRISON CRIB              75     190/  2/  2   N/A
BURNHAM HARBOR             76                   N/A
CALUMET HARBOR             74     190/  1/  2 1008.7R
BURNS HARBOR               73     310/  2/  3 1009.8R
MICHIGAN CITY              72      70/  2/  2   N/A
MICHIGAN CITY 6N           74 75  110/  2/  4   N/A           0
ST. JOSEPH                 74 74  160/  2/  2 1008.9R         0
$$

ILZ025>027-034>036-040-047-049-050-058-095>099-231300-
WEST-CENTRAL ILLINOIS

CITY           SKY/WX    TMP DP  RH WIND       PRES   REMARKS
QUINCY         CLOUDY    72  66  81 NW3       29.86F
GALESBURG*     MOSUNNY   74  74  97 SW3       29.88R
MACOMB*        CLOUDY    74  73  97 W5        29.89S
JACKSONVILLE*  CLOUDY    70  67  90 N6        29.86F
PITTSFIELD*    CLOUDY    71  67  90 N6        29.86F
$$

ILZ028>032-037-038-041>044-048-051>054-059>061-231300-
CENTRAL ILLINOIS

CITY           SKY/WX    TMP DP  RH WIND       PRES   REMARKS
PONTIAC        CLOUDY    76  75  99 W6        29.85R
BLOOMINGTON    CLOUDY    76  74  93 W12       29.88R
DECATUR        CLOUDY    78  66  66 W21G32    29.89R HX  80
PEORIA         PTSUNNY   77  76  96 W9        29.86R
6HR MIN TEMP:  76; 6HR MAX TEMP:  78;

LACON*         PTSUNNY   75  74  98 SW5       29.84R
LINCOLN*       CLOUDY    79  77  94 W7        29.87S HX  83
SPRINGFIELD    CLOUDY    75  67  76 W7        29.88F
6HR MIN TEMP:  74; 6HR MAX TEMP:  81; 6HR PCP: TRACE;

TAYLORVILLE    TSTM      69  67  93 SW3       29.88F
6HR MIN TEMP:  69; 6HR MAX TEMP:  80; 6HR PCP:  0.05;

$$

ILZ033-039-045-046-055>057-062-063-231300-
EAST-CENTRAL ILLINOIS

CITY           SKY/WX    TMP DP  RH WIND       PRES   REMARKS
CHAMPAIGN      CLOUDY    76  74  93 W9        29.86R
MATTOON        LGT RAIN  71  67  87 W16G26    29.89R
PARIS*         CLOUDY    73  73 100 W5        29.85R THUNDER
$$

ILZ079-100>102-231300-
SOUTHWEST ILLINOIS

CITY           SKY/WX    TMP DP  RH WIND       PRES   REMARKS
ALTON          CLOUDY    70  64  83 E7        29.81F
BELLEVILLE     CLOUDY    73  64  75 NE3       29.83F
CAHOKIA*       CLOUDY    74  63  68 S3        29.83F
SPARTA*        CLOUDY    72  66  81 CALM      29.87F
$$

ILZ064>066-069>071-074>076-080>082-084>086-088>090-092>094-231300-
SOUTH-CENTRAL ILLINOIS

CITY           SKY/WX    TMP DP  RH WIND       PRES   REMARKS
CARBONDALE     CLOUDY    71  70  96 SW5       29.87F
6HR MIN TEMP:  71; 6HR MAX TEMP:  85; 6HR PCP:  0.03;

CAIRO*         CLOUDY    80  67  66 N10G20    29.90R HX  82
EFFINGHAM*     RAIN      72  69  91 NW14G23   29.83F
MARION         PTSUNNY   73  73 100 W7        29.89S
MT. VERNON     CLOUDY    71  69  93 CALM      29.85S
CENTRALIA*     CLOUDY    71  70  96 NW3       29.84F
SALEM*         CLOUDY    73  67  83 N6        29.83F
METROPOLIS*    CLOUDY    73  69  86 W7        29.93R
$$

ILZ067-068-072-073-078-083-087-091-231300-
SOUTHEAST ILLINOIS

CITY           SKY/WX    TMP DP  RH WIND       PRES   REMARKS
LAWRENCEVILLE  RAIN      72  50  46 NW33G47   29.87R
FAIRFIELD*     CLOUDY    70  70 100 CALM      29.85R
HARRISBURG*    CLOUDY    74  70  87 CALM      29.89R
ROBINSON*      TSTM      69  67  94 W20G32    29.88R
CARMI*         TSTM      71  70  96 E3        29.89R
$$

ABBREVIATIONS USED IN REMARKS
   TC - TEMPERATURE IN CELSIUS
  WCI - WIND CHILL INDEX
   HX - HEAT INDEX
  VSB - VISIBILITY
$$





USA.gov is the U.S. government's official web portal to all federal, state and local government web resources and services.